1522566000.9,16249,9.06,71462.0,-3.23,-3.87,-3.83,0,*5E
1522566002.1,16250,9.06,71460.0,-3.23,-3.83,-3.83,0,*52
1522566003.33,16251,9.06,71462.0,-3.25,-3.91,-3.79,0,*53
1522566004.56,16252,9.06,71462.3,-3.25,-3.87,-3.79,0,*57
1522566005.78,16253,9.06,71462.8,-3.25,-3.87,-3.79,0,*56
1522566007.01,16254,9.06,71466.0,-3.25,-3.87,-3.79,0,*51
1522566008.21,16255,9.06,71464.8,-3.23,-3.83,-3.83,0,*57
1522566009.43,16256,9.06,71464.3,-3.25,-3.87,-3.87,0,*52
1522566010.63,16257,9.06,71464.5,-3.23,-3.75,-3.87,0,*58
1522566011.83,16258,9.06,71462.0,-3.23,-3.83,-3.83,0,*5A
1522566013.06,16259,9.06,71458.3,-3.25,-3.87,-3.79,0,*5C
1522566014.28,16260,9.06,71456.8,-3.25,-3.87,-3.87,0,*57
1522566015.51,16261,9.06,71460.5,-3.25,-3.91,-3.87,0,*51
1522566016.73,16262,9.06,71466.0,-3.25,-3.87,-3.87,0,*55
1522566017.95,16263,9.06,71468.8,-3.25,-3.87,-3.87,0,*54
1522566019.17,16264,9.06,71464.0,-3.25,-3.87,-3.87,0,*53
1522566020.4,16265,9.06,71462.8,-3.25,-3.87,-3.91,0,*55
1522566021.6,16266,9.06,71462.8,-3.27,-3.91,-3.79,0,*55
1522566022.8,16267,9.06,71466.5,-3.27,-3.91,-3.79,0,*54
1522566024.03,16268,9.06,71462.0,-3.25,-3.87,-3.87,0,*5F
1522566025.25,16269,9.06,71460.5,-3.25,-3.87,-3.91,0,*59
1522566026.48,16270,9.06,71462.0,-3.25,-3.87,-3.79,0,*57
1522566027.67,16271,9.06,71466.0,-3.23,-3.87,-3.79,0,*50
1522566028.91,16272,9.06,71460.8,-3.25,-3.91,-3.79,0,*52
1522566030.13,16273,9.06,71460.0,-3.25,-3.91,-3.87,0,*52
1522566031.35,16274,9.06,71458.8,-3.25,-3.87,-3.87,0,*52
1522566032.56,16275,9.06,71458.8,-3.23,-3.83,-3.83,0,*55
1522566033.76,16276,9.06,71466.3,-3.27,-3.95,-3.91,0,*56
1522566034.96,16277,9.06,71464.0,-3.27,-3.95,-3.83,0,*54
1522566036.18,16278,9.06,71466.8,-3.25,-3.87,-3.79,0,*5F
1522566037.4,16279,9.06,71464.8,-3.25,-3.87,-3.87,0,*5F
1522566038.61,16280,9.06,71464.8,-3.27,-3.91,-3.83,0,*58
1522566039.83,16281,9.06,71464.5,-3.29,-3.95,-3.91,0,*50
1522566041.04,16282,9.06,71466.8,-3.27,-3.91,-3.91,0,*59
1522566042.27,16283,9.06,71466.5,-3.25,-3.91,-3.87,0,*5D
1522566043.49,16284,9.06,71468.0,-3.25,-3.87,-3.87,0,*5D
1522566044.71,16285,9.06,71468.8,-3.25,-3.87,-3.87,0,*5C
1522566045.93,16286,9.06,71470.8,-3.25,-3.87,-3.87,0,*5F
1522566047.15,16287,9.06,71468.3,-3.25,-3.87,-3.87,0,*5E
1522566048.37,16288,9.06,71470.5,-3.25,-3.87,-3.87,0,*51
1522566049.6,16289,9.06,71468.0,-3.25,-3.91,-3.87,0,*57
1522566050.82,16290,9.06,71472.8,-3.25,-3.87,-3.87,0,*58
1522566052.04,16291,9.06,71468.8,-3.25,-3.87,-3.87,0,*59
1522566053.27,16292,9.06,71470.0,-3.29,-3.91,-3.83,0,*55
1522566054.48,16293,9.06,71464.8,-3.27,-3.91,-3.91,0,*59
1522566055.68,16294,9.06,71466.0,-3.27,-3.95,-3.91,0,*5A
1522566056.88,16295,9.06,71462.5,-3.27,-3.91,-3.83,0,*5C
1522566058.08,16296,9.06,71462.5,-3.27,-3.91,-3.83,0,*5F
1522566059.29,16297,9.06,71460.3,-3.27,-3.91,-3.91,0,*5D
1522566060.5,16298,9.06,71458.8,-3.27,-3.83,-3.91,0,*51
1522566061.73,16299,9.06,71456.5,-3.29,-3.91,-3.91,0,*5D
1522566062.93,16300,9.06,71460.5,-3.27,-3.91,-3.91,0,*52
1522566064.14,16301,9.06,71460.0,-3.27,-3.91,-3.91,0,*53
1522566065.37,16302,9.06,71460.8,-3.29,-3.95,-3.91,0,*5A
1522566066.6,16303,9.06,71456.3,-3.29,-3.91,-3.83,0,*5C
1522566067.82,16304,9.06,71456.5,-3.29,-3.91,-3.83,0,*5B
1522566069.03,16305,9.06,71458.5,-3.27,-3.91,-3.91,0,*57
1522566070.23,16306,9.06,71454.3,-3.27,-3.83,-3.83,0,*54
1522566071.43,16307,9.06,71456.0,-3.27,-3.91,-3.83,0,*56
1522566072.63,16308,9.06,71458.8,-3.27,-3.91,-3.83,0,*59
1522566073.84,16309,9.06,71460.3,-3.27,-3.91,-3.95,0,*5F
1522566075.07,16310,9.06,71470.0,-3.29,-3.91,-3.91,0,*5D
1522566076.27,16311,9.06,71474.5,-3.27,-3.91,-3.91,0,*52
1522566077.48,16312,9.06,71476.5,-3.27,-3.95,-3.91,0,*55
1522566078.68,16313,9.06,71474.0,-3.27,-3.95,-3.83,0,*57
1522566079.88,16314,9.06,71472.3,-3.27,-3.91,-3.83,0,*54
1522566081.11,16315,9.06,71472.5,-3.29,-3.95,-3.91,0,*5C
1522566082.33,16316,9.06,71472.5,-3.29,-3.95,-3.95,0,*5B
1522566083.56,16317,9.06,71470.3,-3.29,-3.91,-3.91,0,*5A
1522566084.77,16318,9.06,71468.5,-3.27,-3.91,-3.91,0,*5B
1522566085.97,16319,9.06,71464.0,-3.27,-3.91,-3.83,0,*59
1522566087.2,16320,9.06,71462.3,-3.29,-3.91,-3.83,0,*5D
1522566088.43,16321,9.06,71466.5,-3.29,-3.91,-3.91,0,*5F
1522566089.66,16322,9.06,71466.5,-3.29,-3.91,-3.91,0,*5C
1522566090.9,16323,9.06,71464.3,-3.29,-3.91,-3.91,0,*5D
1522566092.13,16324,9.06,71464.5,-3.29,-3.95,-3.91,0,*5E
1522566093.36,16325,9.06,71468.8,-3.29,-3.83,-3.91,0,*58
1522566094.59,16326,9.06,71468.3,-3.29,-3.91,-3.91,0,*58
1522566095.82,16327,9.06,71468.5,-3.29,-3.91,-3.83,0,*5A
1522566097.02,16328,9.06,71468.0,-3.27,-3.91,-3.91,0,*58
1522566098.25,16329,9.06,71472.0,-3.29,-3.91,-3.91,0,*57
1522566099.46,16330,9.06,71472.5,-3.27,-3.83,-3.91,0,*52
1522566100.69,16331,9.06,71474.8,-3.29,-3.91,-3.95,0,*5A
1522566101.89,16332,9.06,71472.0,-3.27,-3.91,-3.95,0,*57
1522566103.12,16333,9.06,71472.0,-3.29,-3.91,-3.83,0,*5F
1522566104.35,16334,9.06,71472.5,-3.29,-3.91,-3.83,0,*58
1522566105.55,16335,9.06,71470.5,-3.27,-3.91,-3.83,0,*57
1522566106.78,16336,9.06,71470.3,-3.29,-3.91,-3.91,0,*59
1522566107.98,16337,9.06,71468.0,-3.27,-3.95,-3.83,0,*51
1522566109.21,16338,9.06,71470.3,-3.29,-3.83,-3.83,0,*57
1522566110.43,16339,9.06,71466.0,-3.29,-3.95,-3.91,0,*52
1522566111.64,16340,9.06,71466.0,-3.27,-3.83,-3.91,0,*55
1522566112.87,16341,9.06,71470.0,-3.29,-3.91,-3.91,0,*59
1522566114.1,16342,9.06,71470.0,-3.29,-3.91,-3.83,0,*59
1522566115.33,16343,9.06,71470.0,-3.29,-3.91,-3.91,0,*5B
1522566116.59,16344,9.06,71470.5,-3.33,-4.01,-3.95,0,*5D
1522566117.82,16345,9.06,71470.3,-3.29,-3.91,-3.91,0,*5D
1522566119.02,16346,9.06,71468.0,-3.27,-3.95,-3.91,0,*54
1522566120.25,16347,9.06,71472.5,-3.29,-3.91,-3.83,0,*5C
1522566121.47,16348,9.06,71468.0,-3.29,-3.95,-3.83,0,*57
1522566122.7,16349,9.06,71468.3,-3.29,-3.91,-3.83,0,*52
1522566123.91,16350,9.06,71468.8,-3.27,-3.91,-3.79,0,*51
1522566125.14,16351,9.06,71468.5,-3.29,-3.91,-3.79,0,*5E
1522566126.37,16352,9.06,71468.3,-3.29,-3.91,-3.83,0,*58
1522566127.6,16353,9.06,71468.5,-3.29,-3.95,-3.91,0,*5E
1522566128.83,16354,9.06,71466.0,-3.29,-3.91,-3.91,0,*5D
1522566130.05,16355,9.06,71468.0,-3.29,-3.95,-3.95,0,*5C
1522566131.28,16356,9.06,71468.3,-3.33,-3.95,-3.95,0,*54
1522566132.52,16357,9.06,71464.3,-3.29,-3.91,-3.91,0,*5E
1522566133.74,16358,9.06,71466.3,-3.29,-3.91,-3.83,0,*52
1522566134.98,16359,9.06,71464.8,-3.29,-3.91,-3.91,0,*50
1522566136.21,16360,9.06,71468.8,-3.29,-3.91,-3.91,0,*5A
1522566137.46,16361,9.06,71470.8,-3.33,-3.95,-4.01,0,*5A
1522566138.69,16362,9.06,71470.5,-3.33,-3.95,-3.95,0,*53
1522566139.92,16363,9.06,71468.3,-3.33,-3.95,-3.83,0,*55
1522566141.15,16364,9.06,71472.0,-3.29,-3.91,-3.83,0,*5D
1522566142.38,16365,9.06,71468.3,-3.29,-3.91,-3.83,0,*5C
1522566143.61,16366,9.06,71472.0,-3.29,-3.91,-3.83,0,*5F
1522566144.84,16367,9.06,71472.0,-3.33,-3.95,-3.87,0,*55
1522566146.09,16368,9.06,71472.3,-3.33,-4.01,-3.87,0,*50
1522566147.32,16369,9.06,71474.5,-3.33,-3.95,-3.87,0,*5B
1522566148.57,16370,9.06,71478.0,-3.33,-3.95,-4.01,0,*5A
1522566149.8,16371,9.06,71476.8,-3.33,-3.95,-3.95,0,*51
1522566151.06,16372,9.06,71472.8,-3.33,-3.87,-4.01,0,*5B
1522566152.29,16373,9.06,71472.0,-3.29,-3.91,-3.79,0,*5E
1522566153.52,16374,9.06,71472.0,-3.29,-3.91,-3.79,0,*59
1522566154.72,16375,9.06,71470.3,-3.35,-3.95,-3.83,0,*54
1522566155.95,16376,9.06,71474.8,-3.33,-3.95,-3.87,0,*55
1522566157.18,16377,9.06,71470.0,-3.33,-3.95,-3.87,0,*54
1522566158.41,16378,9.06,71470.8,-3.33,-3.95,-3.87,0,*5B
1522566159.64,16379,9.06,71466.3,-3.33,-3.95,-3.87,0,*5A
1522566160.87,16380,9.06,71468.5,-3.33,-3.95,-3.87,0,*5C
1522566162.1,16381,9.06,71464.0,-3.33,-3.95,-3.95,0,*5E
1522566163.3,16382,9.06,71464.5,-3.35,-3.95,-3.95,0,*5B
1522566164.53,16383,9.06,71470.0,-3.33,-3.95,-3.95,0,*5C
1522566165.76,16384,9.06,71470.3,-3.33,-3.87,-3.87,0,*5B
1522566167.01,16385,9.06,71468.8,-3.33,-4.01,-3.87,0,*53
1522566168.24,16386,9.06,71474.5,-3.33,-3.95,-3.87,0,*5A
1522566169.49,16387,9.06,71474.3,-3.33,-4.01,-3.87,0,*51
1522566170.72,16388,9.06,71474.0,-3.33,-3.95,-3.83,0,*50
1522566171.95,16389,9.06,71470.5,-3.33,-3.87,-3.87,0,*56
1522566173.17,16390,9.06,71472.0,-3.33,-3.87,-3.87,0,*5E
1522566174.4,16391,9.06,71472.3,-3.33,-3.87,-3.87,0,*5F
1522566175.6,16392,9.06,71472.0,-3.35,-3.87,-3.87,0,*5A
1522566176.82,16393,9.06,71470.3,-3.33,-3.87,-3.95,0,*5E
1522566178.08,16394,9.06,71472.3,-3.33,-3.95,-4.01,0,*50
1522566179.31,16395,9.06,71472.0,-3.33,-3.95,-3.95,0,*5B
1522566180.53,16396,9.06,71472.5,-3.33,-3.87,-3.87,0,*58
1522566181.76,16397,9.06,71474.8,-3.33,-3.87,-3.87,0,*59
1522566182.98,16398,9.06,71468.8,-3.33,-3.87,-3.95,0,*55
1522566184.21,16399,9.06,71470.3,-3.29,-3.91,-3.83,0,*5F
1522566185.44,16400,9.06,71474.0,-3.33,-3.87,-3.95,0,*53
1522566186.67,16401,9.06,71472.3,-3.33,-3.95,-3.95,0,*51
1522566187.9,16402,9.06,71470.8,-3.33,-3.95,-3.95,0,*52
1522566189.1,16403,9.06,71468.0,-3.35,-3.95,-3.95,0,*55
1522566190.33,16404,9.06,71466.5,-3.33,-3.95,-3.87,0,*57
1522566191.56,16405,9.06,71464.3,-3.33,-3.95,-3.87,0,*56
1522566192.79,16406,9.06,71468.5,-3.29,-3.83,-3.83,0,*5D
1522566194.01,16407,9.06,71470.0,-3.33,-3.95,-3.87,0,*54
1522566195.22,16408,9.06,71474.8,-3.35,-3.95,-3.87,0,*5D
1522566196.45,16409,9.06,71474.8,-3.33,-3.95,-3.87,0,*5A
1522566197.65,16410,9.06,71474.0,-3.35,-3.95,-3.87,0,*54
1522566198.86,16411,9.06,71472.3,-3.35,-3.95,-3.87,0,*55
1522566200.06,16412,9.06,71474.3,-3.35,-3.87,-3.95,0,*56
1522566201.29,16413,9.06,71474.0,-3.33,-3.95,-3.87,0,*51
1522566202.49,16414,9.06,71472.8,-3.35,-3.95,-3.87,0,*50
1522566203.71,16415,9.06,71468.5,-3.33,-3.87,-3.87,0,*54
1522566204.97,16416,9.06,71472.0,-3.33,-4.01,-3.87,0,*5E
1522566206.17,16417,9.06,71472.3,-3.35,-3.95,-3.87,0,*53
1522566207.38,16418,9.06,71474.0,-3.35,-3.95,-3.87,0,*5C
1522566208.61,16419,9.06,71474.0,-3.33,-3.95,-3.83,0,*5F
1522566209.84,16420,9.06,71474.8,-3.33,-3.95,-3.87,0,*51
1522566211.07,16421,9.06,71476.8,-3.33,-3.95,-3.95,0,*53
1522566212.27,16422,9.06,71474.3,-3.35,-3.87,-3.87,0,*56
1522566213.47,16423,9.06,71474.5,-3.35,-3.95,-3.87,0,*54
1522566214.7,16424,9.06,71470.8,-3.33,-3.95,-3.87,0,*55
1522566215.9,16425,9.06,71472.8,-3.35,-3.95,-3.87,0,*52
1522566217.13,16426,9.06,71472.3,-3.35,-4.01,-3.87,0,*5B
1522566218.36,16427,9.06,71474.8,-3.33,-3.95,-3.95,0,*55
1522566219.59,16428,9.06,71476.0,-3.33,-3.87,-3.87,0,*5A
1522566220.79,16429,9.06,71474.5,-3.35,-3.95,-3.87,0,*5E
1522566222.0,16430,9.06,71474.3,-3.35,-3.95,-3.87,0,*56
1522566223.2,16431,9.06,71470.8,-3.35,-3.87,-3.95,0,*57
1522566224.42,16432,9.06,71468.8,-3.33,-3.87,-3.87,0,*51
1522566225.63,16433,9.06,71472.8,-3.35,-3.95,-3.87,0,*55
1522566226.83,16434,9.06,71472.3,-3.35,-3.95,-3.83,0,*56
1522566228.06,16435,9.06,71472.5,-3.33,-3.95,-3.87,0,*55
1522566229.26,16436,9.06,71474.3,-3.35,-3.87,-3.83,0,*57
1522566230.49,16437,9.06,71476.8,-3.33,-3.95,-3.87,0,*57
1522566231.69,16438,9.06,71478.0,-3.35,-3.95,-3.87,0,*5E
1522566232.9,16439,9.06,71474.3,-3.35,-3.87,-3.87,0,*5C
1522566234.1,16440,9.06,71472.3,-3.35,-3.95,-3.83,0,*55
1522566235.33,16441,9.06,71472.0,-3.33,-3.95,-3.87,0,*56
1522566236.53,16442,9.06,71472.5,-3.35,-3.95,-3.83,0,*57
1522566237.77,16443,9.06,71468.8,-3.35,-4.01,-3.95,0,*5B
1522566238.97,16444,9.06,71470.8,-3.35,-3.95,-3.95,0,*56
1522566240.18,16445,9.06,71472.8,-3.35,-3.95,-3.95,0,*57
1522566241.4,16446,9.06,71470.3,-3.33,-3.95,-3.87,0,*51
1522566242.61,16447,9.06,71470.3,-3.35,-3.95,-3.87,0,*56
1522566243.84,16448,9.06,71470.8,-3.33,-3.95,-3.87,0,*5F
1522566245.04,16449,9.06,71472.8,-3.35,-3.87,-3.87,0,*5B
1522566246.24,16450,9.06,71474.8,-3.35,-3.95,-3.87,0,*50
1522566247.47,16451,9.06,71468.8,-3.33,-3.95,-3.87,0,*57
1522566248.68,16452,9.06,71474.0,-3.35,-3.95,-3.83,0,*56
1522566249.9,16453,9.06,71470.5,-3.33,-3.87,-3.87,0,*56
1522566251.1,16454,9.06,71472.8,-3.35,-3.87,-3.95,0,*54
1522566252.33,16455,9.06,71470.0,-3.33,-3.95,-3.95,0,*50
1522566253.53,16456,9.06,71472.3,-3.35,-3.87,-3.83,0,*51
1522566254.74,16457,9.06,71472.3,-3.35,-3.95,-3.87,0,*57
1522566255.97,16458,9.06,71474.0,-3.35,-3.95,-4.01,0,*51
1522566257.17,16459,9.06,71472.8,-3.35,-3.95,-3.83,0,*5D
1522566258.37,16460,9.06,71474.5,-3.35,-3.87,-3.87,0,*50
1522566259.58,16461,9.06,71474.5,-3.35,-3.95,-3.87,0,*52
1522566260.84,16462,9.06,71468.3,-3.37,-3.91,-4.01,0,*5E
1522566262.04,16463,9.06,71470.5,-3.35,-3.87,-3.87,0,*53
1522566263.27,16464,9.06,71468.5,-3.37,-3.91,-3.91,0,*56
1522566264.48,16465,9.06,71468.8,-3.35,-3.87,-3.87,0,*55
1522566265.73,16466,9.06,71472.5,-3.33,-4.01,-3.95,0,*5A
1522566266.96,16467,9.06,71470.3,-3.33,-3.95,-3.87,0,*52
1522566268.16,16468,9.06,71470.3,-3.35,-3.87,-3.87,0,*58
1522566269.39,16469,9.06,71472.3,-3.37,-3.91,-3.91,0,*5B
1522566270.63,16470,9.06,71474.0,-3.37,-3.91,-3.91,0,*53
1522566271.83,16471,9.06,71472.3,-3.35,-3.87,-3.87,0,*50
1522566273.03,16472,9.06,71472.5,-3.35,-3.87,-3.83,0,*57
1522566274.26,16473,9.06,71474.5,-3.33,-3.87,-3.87,0,*54
1522566275.46,16474,9.06,71476.5,-3.35,-3.83,-3.87,0,*51
1522566276.66,16475,9.06,71472.0,-3.35,-3.87,-3.87,0,*54
1522566277.86,16476,9.06,71474.8,-3.35,-3.87,-3.87,0,*57
1522566279.07,16477,9.06,71472.5,-3.35,-3.95,-3.87,0,*55
1522566280.27,16478,9.06,71474.3,-3.35,-3.95,-3.83,0,*5E
1522566281.47,16479,9.06,71472.0,-3.35,-3.87,-3.87,0,*58
1522566282.68,16480,9.06,71472.8,-3.35,-3.95,-3.87,0,*5D
1522566283.88,16481,9.06,71472.5,-3.35,-3.87,-3.87,0,*5F
1522566285.1,16482,9.06,71468.8,-3.33,-3.87,-3.87,0,*5A
1522566286.3,16483,9.06,71474.8,-3.35,-3.87,-3.87,0,*5D
1522566287.51,16484,9.06,71474.8,-3.35,-3.87,-3.83,0,*5E
1522566288.71,16485,9.06,71472.5,-3.35,-3.87,-3.83,0,*5F
1522566289.91,16486,9.06,71474.0,-3.35,-3.95,-3.87,0,*5B
1522566291.15,16487,9.06,71470.8,-3.37,-3.91,-3.91,0,*5B
1522566292.38,16488,9.06,71470.5,-3.37,-3.91,-3.87,0,*53
1522566293.58,16489,9.06,71468.5,-3.35,-3.87,-3.95,0,*54
1522566294.8,16490,9.06,71470.5,-3.33,-3.87,-3.87,0,*59
1522566296.01,16491,9.06,71470.0,-3.35,-3.83,-3.87,0,*5A
1522566297.22,16492,9.06,71470.3,-3.35,-3.95,-3.83,0,*5A
1522566298.42,16493,9.06,71470.5,-3.35,-3.95,-3.87,0,*5F
1522566299.62,16494,9.06,71468.8,-3.35,-3.95,-3.87,0,*58
1522566300.83,16495,9.06,71470.0,-3.35,-3.95,-3.87,0,*59
1522566302.03,16496,9.06,71468.3,-3.35,-3.95,-3.83,0,*5E
1522566303.24,16497,9.06,71468.3,-3.35,-3.83,-3.87,0,*5C
1522566304.45,16498,9.06,71472.8,-3.35,-3.95,-3.95,0,*57
1522566305.65,16499,9.06,71470.3,-3.35,-3.87,-3.87,0,*56
1522566306.85,16500,9.06,71470.8,-3.35,-3.95,-3.87,0,*54
1522566308.05,16501,9.06,71470.8,-3.35,-3.87,-3.83,0,*52
1522566309.25,16502,9.06,71468.8,-3.35,-3.87,-3.87,0,*55
1522566310.45,16503,9.06,71474.5,-3.35,-3.87,-3.87,0,*54
1522566311.65,16504,9.06,71468.5,-3.35,-3.87,-3.87,0,*53
1522566312.85,16505,9.06,71470.0,-3.35,-3.87,-3.87,0,*52
1522566314.05,16506,9.06,71470.5,-3.35,-3.87,-3.83,0,*55
1522566315.26,16507,9.06,71470.5,-3.35,-3.87,-3.87,0,*50
1522566316.46,16508,9.06,71472.0,-3.35,-3.87,-3.87,0,*5F
1522566317.66,16509,9.06,71470.3,-3.35,-3.87,-3.95,0,*5D
1522566318.86,16510,9.06,71470.5,-3.35,-3.87,-3.87,0,*56
1522566320.06,16511,9.06,71470.0,-3.35,-3.87,-3.87,0,*57
1522566321.26,16512,9.06,71470.8,-3.35,-3.87,-3.87,0,*54
1522566322.48,16513,9.06,71470.3,-3.37,-3.87,-3.87,0,*57
1522566323.68,16514,9.06,71474.0,-3.35,-3.87,-3.87,0,*52
1522566324.89,16515,9.06,71474.8,-3.35,-3.95,-3.87,0,*50
1522566326.12,16516,9.06,71476.3,-3.37,-3.91,-3.91,0,*52
1522566327.33,16517,9.06,71474.8,-3.35,-3.87,-3.83,0,*55
1522566328.53,16518,9.06,71470.5,-3.35,-3.83,-3.87,0,*5A
1522566329.74,16519,9.06,71470.8,-3.35,-3.83,-3.87,0,*5B
1522566330.97,16520,9.06,71468.3,-3.37,-3.91,-3.91,0,*57
1522566332.21,16521,9.06,71470.5,-3.37,-3.91,-3.91,0,*56
1522566333.47,16522,9.06,71470.0,-3.37,-4.01,-3.91,0,*5B
1522566334.7,16523,9.06,71470.8,-3.37,-3.91,-3.91,0,*54
1522566335.94,16524,9.06,71468.3,-3.37,-3.91,-3.91,0,*53
1522566337.2,16525,9.06,71470.0,-3.37,-4.01,-3.91,0,*5C
1522566338.43,16526,9.06,71466.8,-3.37,-3.91,-3.91,0,*51
1522566339.69,16527,9.06,71466.3,-3.37,-4.01,-3.91,0,*5E
1522566340.92,16528,9.06,71474.8,-3.37,-3.91,-3.91,0,*5F
1522566342.16,16529,9.06,71474.8,-3.37,-3.91,-3.91,0,*5E
1522566343.39,16530,9.06,71472.8,-3.37,-3.87,-3.91,0,*51
1522566344.62,16531,9.06,71468.8,-3.37,-3.91,-3.87,0,*50
1522566345.83,16532,9.06,71468.8,-3.39,-3.91,-3.91,0,*5A
1522566347.06,16533,9.06,71472.0,-3.37,-3.91,-3.91,0,*55
1522566348.3,16534,9.06,71468.0,-3.37,-3.91,-3.91,0,*52
1522566349.53,16535,9.06,71470.5,-3.37,-3.91,-3.91,0,*53
1522566350.77,16536,9.06,71468.8,-3.37,-3.91,-3.91,0,*50
1522566352.03,16537,9.06,71472.8,-3.37,-3.91,-4.01,0,*5F
1522566353.26,16538,9.06,71472.5,-3.37,-3.91,-3.91,0,*5E
1522566354.5,16539,9.06,71468.5,-3.37,-3.91,-3.91,0,*5F
1522566355.73,16540,9.06,71470.5,-3.37,-3.91,-3.91,0,*51
1522566356.97,16541,9.06,71470.5,-3.37,-3.91,-3.91,0,*50
1522566358.2,16542,9.06,71466.8,-3.37,-3.91,-3.87,0,*54
1522566359.43,16543,9.06,71470.0,-3.37,-3.91,-3.87,0,*55
1522566360.66,16544,9.06,71470.0,-3.37,-3.91,-3.87,0,*52
1522566361.92,16545,9.06,71468.5,-3.37,-4.01,-3.91,0,*5A
1522566363.15,16546,9.06,71470.3,-3.37,-3.91,-3.87,0,*50
1522566364.35,16547,9.06,71472.5,-3.35,-3.87,-3.87,0,*54
1522566365.59,16548,9.06,71472.5,-3.37,-3.91,-3.91,0,*59
1522566366.82,16549,9.06,71472.5,-3.37,-3.91,-3.91,0,*58
1522566368.02,16550,9.06,71470.0,-3.35,-3.87,-3.87,0,*52
1522566369.28,16551,9.06,71472.8,-3.37,-4.01,-3.91,0,*5F
1522566370.48,16552,9.06,71472.8,-3.35,-3.87,-3.87,0,*50
1522566371.71,16553,9.06,71470.5,-3.37,-3.91,-3.87,0,*54
1522566372.95,16554,9.06,71470.3,-3.37,-3.91,-3.91,0,*54
1522566374.18,16555,9.06,71464.5,-3.37,-3.91,-3.87,0,*52
1522566375.41,16556,9.06,71468.5,-3.37,-3.87,-3.91,0,*51
1522566376.64,16557,9.06,71468.0,-3.37,-3.91,-3.91,0,*57
1522566377.87,16558,9.06,71468.5,-3.37,-3.87,-3.91,0,*5F
1522566379.08,16559,9.06,71470.8,-3.39,-3.91,-3.91,0,*57
1522566380.3,16560,9.06,71468.0,-3.37,-3.87,-3.87,0,*53
1522566381.54,16561,9.06,71472.8,-3.37,-3.91,-3.91,0,*52
1522566382.77,16562,9.06,71472.8,-3.37,-3.91,-3.91,0,*51
1522566384.01,16563,9.06,71468.8,-3.37,-3.91,-3.91,0,*50
1522566385.24,16564,9.06,71470.5,-3.37,-3.91,-3.91,0,*57
1522566386.48,16565,9.06,71470.0,-3.37,-3.91,-3.91,0,*56
1522566387.71,16566,9.06,71468.8,-3.37,-3.91,-3.87,0,*52
1522566388.94,16567,9.06,71470.8,-3.37,-3.91,-3.87,0,*53
1522566390.18,16568,9.06,71472.8,-3.37,-3.91,-3.91,0,*5B
1522566391.38,16569,9.06,71470.8,-3.39,-3.91,-3.91,0,*54
1522566392.61,16570,9.06,71470.3,-3.37,-3.91,-3.87,0,*55
1522566393.84,16571,9.06,71472.5,-3.37,-3.87,-3.87,0,*53
1522566395.07,16572,9.06,71470.8,-3.37,-3.91,-3.91,0,*50
1522566396.28,16573,9.06,71470.0,-3.39,-3.91,-3.91,0,*5F
1522566397.51,16574,9.06,71468.3,-3.37,-3.91,-3.91,0,*56
1522566398.75,16575,9.06,71470.8,-3.37,-3.91,-3.87,0,*50
1522566399.98,16576,9.06,71468.0,-3.37,-3.91,-3.91,0,*54
1522566401.21,16577,9.06,71468.3,-3.37,-3.91,-3.87,0,*52
1522566402.41,16578,9.06,71468.5,-3.35,-3.87,-3.87,0,*58
1522566403.62,16579,9.06,71468.8,-3.35,-3.95,-3.87,0,*5A
1522566404.85,16580,9.06,71470.3,-3.37,-3.91,-3.91,0,*5D
1522566406.08,16581,9.06,71470.3,-3.35,-4.01,-3.87,0,*57
1522566407.28,16582,9.06,71468.8,-3.35,-3.87,-3.83,0,*59
1522566408.49,16583,9.06,71470.8,-3.35,-3.87,-3.83,0,*58
1522566409.69,16584,9.06,71464.8,-3.35,-3.87,-3.87,0,*5B
1522566410.89,16585,9.06,71466.0,-3.35,-3.83,-3.87,0,*5E
1522566412.09,16586,9.06,71468.5,-3.35,-3.87,-3.87,0,*59
1522566413.33,16587,9.06,71466.0,-3.37,-3.91,-3.91,0,*5A
1522566414.56,16588,9.06,71464.8,-3.37,-3.91,-3.87,0,*52
1522566415.79,16589,9.06,71468.8,-3.37,-3.91,-3.91,0,*54
1522566417.03,16590,9.06,71464.8,-3.37,-3.91,-3.87,0,*5B
1522566418.26,16591,9.06,71470.0,-3.37,-3.91,-3.91,0,*5D
1522566419.49,16592,9.06,71468.0,-3.37,-3.91,-3.87,0,*59
1522566420.69,16593,9.06,71468.3,-3.35,-3.87,-3.83,0,*59
1522566421.9,16594,9.06,71464.0,-3.35,-3.83,-3.87,0,*5E
1522566423.11,16595,9.06,71462.0,-3.35,-3.83,-3.87,0,*5F
1522566424.31,16596,9.06,71460.8,-3.35,-3.83,-3.87,0,*5C
1522566425.51,16597,9.06,71464.5,-3.35,-3.87,-3.87,0,*59
1522566426.72,16598,9.06,71462.5,-3.35,-3.87,-3.83,0,*52
1522566427.94,16599,9.06,71460.3,-3.37,-3.87,-3.87,0,*55
1522566429.14,16600,9.06,71466.3,-3.35,-3.87,-3.83,0,*50
1522566430.35,16601,9.06,71466.0,-3.35,-3.83,-3.83,0,*55
1522566431.55,16602,9.06,71466.0,-3.35,-3.87,-3.83,0,*52
1522566432.75,16603,9.06,71468.5,-3.35,-3.87,-3.87,0,*57
1522566433.96,16604,9.06,71470.0,-3.35,-3.83,-3.83,0,*50
1522566435.16,16605,9.06,71468.3,-3.35,-3.87,-3.83,0,*55
1522566436.39,16606,9.06,71466.3,-3.37,-3.91,-3.91,0,*50
1522566437.62,16607,9.06,71460.0,-3.37,-3.87,-3.87,0,*51
1522566438.85,16608,9.06,71464.0,-3.37,-3.91,-3.91,0,*5E
1522566440.08,16609,9.06,71462.5,-3.37,-3.87,-3.87,0,*5F
1522566441.31,16610,9.06,71462.5,-3.37,-3.91,-3.91,0,*57
1522566442.55,16611,9.06,71464.3,-3.37,-3.91,-3.79,0,*50
1522566443.78,16612,9.06,71470.3,-3.37,-3.91,-3.91,0,*55
1522566445.02,16613,9.06,71470.5,-3.37,-3.91,-3.87,0,*53
1522566446.22,16614,9.06,71470.3,-3.35,-3.87,-3.83,0,*55
1522566447.42,16615,9.06,71468.8,-3.35,-3.83,-3.83,0,*50
1522566448.66,16616,9.06,71470.3,-3.37,-3.91,-3.91,0,*51
1522566449.86,16617,9.06,71468.0,-3.35,-3.87,-3.83,0,*56
1522566451.08,16618,9.06,71466.5,-3.37,-3.87,-3.87,0,*5F
1522566452.29,16619,9.06,71466.3,-3.35,-3.83,-3.87,0,*58
1522566453.52,16620,9.06,71466.3,-3.33,-3.83,-3.83,0,*50
1522566454.75,16621,9.06,71464.5,-3.33,-3.87,-3.83,0,*55
1522566455.95,16622,9.06,71464.5,-3.35,-3.87,-3.87,0,*54
1522566457.16,16623,9.06,71464.5,-3.35,-3.83,-3.87,0,*51
1522566458.36,16624,9.06,71462.8,-3.35,-3.83,-3.87,0,*56
1522566459.56,16625,9.06,71466.8,-3.35,-3.87,-3.87,0,*53
1522566460.77,16626,9.06,71466.5,-3.35,-3.83,-3.83,0,*50
1522566461.98,16627,9.06,71462.5,-3.35,-3.83,-3.83,0,*51
1522566463.19,16628,9.06,71464.8,-3.35,-3.83,-3.83,0,*5E
1522566464.39,16629,9.06,71464.0,-3.35,-3.83,-3.83,0,*5F
1522566465.62,16630,9.06,71466.8,-3.37,-3.91,-3.87,0,*52
1522566466.83,16631,9.06,71464.3,-3.35,-3.83,-3.83,0,*56
1522566468.04,16632,9.06,71464.0,-3.35,-3.83,-3.87,0,*51
1522566469.26,16633,9.13,71468.3,-3.33,-3.87,-3.87,0,*52
1522566470.47,16634,9.06,71466.0,-3.35,-3.83,-3.87,0,*57
1522566471.69,16635,9.13,71468.3,-3.33,-3.87,-3.83,0,*50
1522566472.89,16636,9.06,71466.3,-3.35,-3.87,-3.87,0,*51
1522566474.1,16637,9.06,71466.0,-3.35,-3.83,-3.87,0,*54
1522566475.33,16638,9.06,71464.0,-3.33,-3.87,-3.87,0,*59
1522566476.53,16639,9.06,71464.0,-3.35,-3.83,-3.83,0,*5E
1522566477.74,16640,9.06,71464.0,-3.35,-3.83,-3.87,0,*54
1522566478.95,16641,9.06,71460.5,-3.35,-3.83,-3.83,0,*51
1522566480.15,16642,9.06,71466.3,-3.35,-3.83,-3.87,0,*56
1522566481.36,16643,9.06,71464.5,-3.35,-3.83,-3.87,0,*57
1522566482.57,16644,9.06,71460.3,-3.35,-3.83,-3.87,0,*50
1522566483.77,16645,9.06,71460.0,-3.35,-3.83,-3.83,0,*55
1522566485.01,16646,9.06,71460.8,-3.33,-3.83,-3.87,0,*54
1522566486.21,16647,9.06,71460.3,-3.35,-3.87,-3.83,0,*53
1522566487.41,16648,9.06,71460.0,-3.35,-3.87,-3.83,0,*5C
1522566488.61,16649,9.06,71460.0,-3.35,-3.87,-3.87,0,*59
1522566489.82,16650,9.06,71464.0,-3.35,-3.83,-3.83,0,*51
1522566491.02,16651,9.06,71462.5,-3.35,-3.87,-3.83,0,*54
1522566492.22,16652,9.06,71464.8,-3.35,-3.87,-3.83,0,*57
1522566493.45,16653,9.06,71462.0,-3.33,-3.83,-3.75,0,*5D
1522566494.68,16654,9.06,71464.8,-3.33,-3.83,-3.87,0,*57
1522566495.89,16655,9.06,71460.3,-3.35,-3.87,-3.83,0,*50
1522566497.09,16656,9.06,71460.3,-3.35,-3.87,-3.83,0,*53
1522566498.29,16657,9.13,71466.5,-3.35,-3.83,-3.83,0,*56
1522566499.53,16658,9.06,71460.5,-3.33,-3.83,-3.83,0,*5F
1522566500.73,16659,9.06,71464.3,-3.35,-3.87,-3.83,0,*5C
1522566501.93,16660,9.06,71462.0,-3.35,-3.87,-3.75,0,*5F
1522566503.14,16661,9.06,71460.0,-3.35,-3.83,-3.83,0,*53
1522566504.34,16662,9.13,71468.3,-3.35,-3.83,-3.87,0,*54
1522566505.58,16663,9.06,71462.5,-3.33,-3.83,-3.83,0,*57
1522566506.78,16664,9.06,71462.5,-3.35,-3.83,-3.83,0,*56
1522566507.98,16665,9.06,71462.8,-3.35,-3.87,-3.83,0,*53
1522566509.19,16666,9.06,71460.8,-3.35,-3.83,-3.83,0,*54
1522566510.42,16667,9.06,71460.0,-3.33,-3.87,-3.83,0,*57
1522566511.62,16668,9.06,71460.0,-3.35,-3.87,-3.83,0,*5E
1522566512.83,16669,9.06,71460.0,-3.35,-3.83,-3.83,0,*5B